Regional Weather Roundup
Issued by NWS

Home | Current Version | Previous Version | Graphics & Text | Print | Product List | Glossary On
Versions: 1 2 3 4 5 6 7 8 9 10 11 12 13 14 15 16 17 18 19 20 21 22 23 24 25 26 27 28 29 30 31 32 33 34 35 36 37 38 39 40 41 42 43 44 45 46 47 48 49 50
998
ASUS43 KTOP 222259
RWRKS

WEATHER ROUNDUP FOR KANSAS
NATIONAL WEATHER SERVICE GOODLAND KS
600 PM CDT WED MAR 22 2017

NOTE:  "FAIR" INDICATES FEW OR NO CLOUDS BELOW 12,000 FEET WITH NO
SIGNIFICANT WEATHER AND/OR OBSTRUCTIONS TO VISIBILITY.

KSZ001>006-013>018-027>032-041>047-230000-
NORTHWEST KANSAS

CITY           SKY/WX    TMP DP  RH WIND       PRES   REMARKS
GOODLAND       CLOUDY    61  39  44 S26G36    29.93F
HAYS             N/A     55  34  45 SE17      30.05F
HILL CITY      CLOUDY    52  33  48 S15       30.05F
RUSSELL        CLOUDY    55  33  43 SE15      30.06F
$$

KSZ061>065-074>080-084>089-230000-
SOUTHWEST KANSAS

CITY           SKY/WX    TMP DP  RH WIND       PRES   REMARKS
DODGE CITY     SUNNY     60  38  43 SE21      30.02F
ELKHART          N/A     69  41  36 S24         N/A
GARDEN CITY    CLOUDY    62  39  42 SE20G28   29.98F
GREAT BEND     CLOUDY    54  36  50 SE17      30.07F
LIBERAL        SUNNY     68  41  37 SE17G26   29.98F
$$

KSZ066>073-081>083-090>101-230000-
SOUTHEAST KANSAS

CITY           SKY/WX    TMP DP  RH WIND       PRES   REMARKS
CHANUTE        CLOUDY    57  31  37 SE17      30.16S
COFFEYVILLE    CLOUDY    59  39  47 E12       30.14F
HUTCHINSON     CLOUDY    55  34  45 SE12      30.11F
NEWTON         CLOUDY    55  33  43 SE16      30.13F
PARSONS        CLOUDY    58  36  43 E8        30.16F
WICHITA INTL   CLOUDY    56  38  50 SE10      30.10F
WICHITA JABRA  CLOUDY    56  36  47 SE8       30.11F
WINFIELD       CLOUDY    62  43  49 SE10      30.11F
$$

KSZ007>012-019>026-033>040-048>060-102>105-230000-
NORTHEAST KANSAS

CITY           SKY/WX    TMP DP  RH WIND       PRES   REMARKS
CONCORDIA      CLOUDY    55  25  31 SE21      30.11F
EMPORIA        CLOUDY    56  31  38 E13       30.14F
LAWRENCE       CLOUDY    56  28  34 E14       30.20F
MANHATTAN      CLOUDY    57  25  29 SE14      30.16F
OLATHE IND     CLOUDY    55  29  36 E9G22     30.21S
OLATHE EXE     CLOUDY    53  30  41 E16G23    30.20F
SALINA         CLOUDY    58  31  35 SE16      30.13F
TOPEKA BILLARD CLOUDY    56  29  35 E16       30.18S
TOPEKA FORBES  CLOUDY    57  27  31 E15G23    30.17F
$$




USA.gov is the U.S. government's official web portal to all federal, state and local government web resources and services.